Regional Weather Roundup
Issued by NWS Charleston, WV

Home | Current Version | Previous Version | Text Only | Print | Product List | Glossary On
Versions: 1 2 3 4 5 6 7 8 9 10 11 12 13 14 15 16 17 18 19 20 21 22 23 24 25 26 27 28 29 30 31 32 33 34 35 36 37 38 39 40 41 42 43 44 45 46 47 48 49 50
000
ASUS41 KRLX 302210
RWRRLX
West Virginia Regional Weather Roundup
National Weather Service Charleston WV
600 PM EDT SAT MAY 30 2015

Note: "fair" indicates few or no clouds below 12,000 feet with no
significant weather and/or obstructions to visibility.

WVZ003-302300-
Northern Panhandle of West Virginia

CITY           SKY/WX    TMP DP  RH WIND       PRES   REMARKS
WHEELING       PTSUNNY   72  66  81 SW9       30.04S
$$

WVZ009-302300-
Northwest West Virginia

CITY           SKY/WX    TMP DP  RH WIND       PRES   REMARKS
PARKERSBURG    MOSUNNY   79  67  66 CALM      30.05F
$$

WVZ006-302300-
Western West Virginia

CITY           SKY/WX    TMP DP  RH WIND       PRES   REMARKS
HUNTINGTON     SUNNY     84  61  45 SW9       30.01F
$$

WVZ015-302300-
West Central West Virginia

CITY           SKY/WX    TMP DP  RH WIND       PRES   REMARKS
CHARLESTON     MOSUNNY   86  63  45 VRB5      30.02F
$$

WVZ022-031-302300-
North Central West Virginia

CITY           SKY/WX    TMP DP  RH WIND       PRES   REMARKS
CLARKSBURG     MOSUNNY   81  65  58 S7        30.05F
MORGANTOWN     MOSUNNY   82  60  47 SW6       30.06F
$$

WVZ025-035-042-045-302300-
Southern West Virginia

CITY           SKY/WX    TMP DP  RH WIND       PRES   REMARKS
BECKLEY        MOSUNNY   79  57  46 S8        30.13F
LOGAN            N/A     82  55  39 SE10G16   30.03F
BLUEFIELD      SUNNY     81  51  35 VRB7      30.17F
LEWISBURG      MOSUNNY   83  57  41 S9        30.14S
$$

WVZ047-302300-
Northern Mountains of West Virginia

CITY           SKY/WX    TMP DP  RH WIND       PRES   REMARKS
ELKINS         MOSUNNY   78  64  61 CALM      30.10F
$$

WVZ052-302300-
Eastern Panhandle of West Virginia

CITY           SKY/WX    TMP DP  RH WIND       PRES   REMARKS
MARTINSBURG    CLOUDY    75  68  78 CALM      30.07F
PETERSBURG     MOSUNNY   75  64  67 CALM      30.09F
$$


USA.gov is the U.S. government's official web portal to all federal, state and local government web resources and services.